Location: Namasale
(1.5000°N, 32.6167°E)
Time: 01:31:10
(UTC+00:00)

Vanguard 2 Rocket - Pass Details

Date: 24 April 2021
Orbit: 553 x 3326 km, 32.9° (Epoch: 10 May)

Event Time Altitude Azimuth Distance (km) Brightness Sun altitude
Rises 17:38:50 0° 307° (NW) 6,978 12.5 -26.6°
Reaches altitude 10° 17:44:00 10° 308° (NW) 5,672 11.8 -27.9°
Maximum altitude 17:59:58 81° 34° (NE) 1,932 8.3 -31.7°
Enters shadow 18:02:09 63° 106° (ESE) 1,925 8.1 -32.2°
